Location: Unspecified
(0.0000°N, 0.0000°E)
Time: 18:22:46
(UTC+00:00)

SR - Pass Details

Date: 04 August 2021
Orbit: 581 x 874 km, 66.7° (Epoch: 25 September)

Event Time Altitude Azimuth Distance (km) Brightness Sun altitude
Exits shadow 02:54:33 15° 76° (ENE) 2,187 ? -45.1°
Drops below altitude 10° 02:55:58 10° 64° (ENE) 2,514 ? -44.8°
Sets 02:59:06 0° 48° (NE) 3,439 ? -44.1°
